Location: The Saddle
(36.8333°N, 80.3417°W)
Time: 10:45:35
(UTC-04:00)

ZACube-1 - Visible Passes

Search period start: 21 March 2023 00:00
Search period end: 31 March 2023 00:00
Orbit: 578 x 654 km, 97.7° (Epoch: 20 March)

Date Brightness Start Highest point End Pass type
(mag) Time Alt. Az. Time Alt. Az. Time Alt. Az.
21 Mar ? 04:49:38 10° N 04:51:11 22° N 04:51:11 22° N visible
22 Mar ? 05:05:49 10° N 05:07:33 23° N 05:07:33 23° N visible
23 Mar ? 05:22:06 10° N 05:23:55 22° NNW 05:23:55 22° NNW visible
24 Mar ? 04:02:25 10° NE 04:03:11 14° NE 04:03:11 14° NE visible
24 Mar ? 05:38:34 10° NNW 05:40:17 18° NW 05:40:17 18° NW visible
25 Mar ? 04:18:06 10° NNE 04:19:32 19° NE 04:19:32 19° NE visible
25 Mar ? 05:55:21 10° NNW 05:56:37 14° NW 05:56:37 14° NW visible
26 Mar ? 04:33:58 10° NNE 04:35:52 25° NNE 04:35:52 25° NNE visible
27 Mar ? 04:49:58 10° N 04:52:11 30° N 04:52:11 30° N visible
28 Mar ? 05:06:05 10° N 05:08:30 31° NNW 05:08:30 31° NNW visible
29 Mar ? 03:47:13 10° NE 03:47:44 12° ENE 03:47:44 12° ENE visible
29 Mar ? 05:22:20 10° N 05:24:49 27° NW 05:24:49 27° NW visible
30 Mar ? 04:02:33 10° NE 04:04:01 18° NE 04:04:01 18° NE visible
30 Mar ? 05:38:45 10° NNW 05:41:06 20° NW 05:41:06 20° NW visible
